owner,sensor,date,latitude,longitude,air_temperature,qcFlag 
DISL,ioos:station:DISL:DISL:1,2011-02-01T00:00:00Z,30.2513,-88.0778,14.81,1111122 
DISL,ioos:station:DISL:DISL:1,2011-02-01T00:30:00Z,30.2513,-88.0778,14.75,1111122 
DISL,ioos:station:DISL:DISL:1,2011-02-01T01:00:00Z,30.2513,-88.0778,14.71,1111122 
DISL,ioos:station:DISL:DISL:1,2011-02-01T01:30:00Z,30.2513,-88.0778,14.76,1111122 
DISL,ioos:station:DISL:DISL:1,2011-02-01T02:00:00Z,30.2513,-88.0778,14.74,1111122 
DISL,ioos:station:DISL:DISL:1,2011-02-01T02:30:00Z,30.2513,-88.0778,14.77,1111122 
DISL,ioos:station:DISL:DISL:1,2011-02-01T03:00:00Z,30.2513,-88.0778,14.71,1111122 
DISL,ioos:station:DISL:DISL:1,2011-02-01T03:30:00Z,30.2513,-88.0778,14.7,1111122 
DISL,ioos:station:DISL:DISL:1,2011-02-01T04:00:00Z,30.2513,-88.0778,14.58,1111122 
DISL,ioos:station:DISL:DISL:1,2011-02-01T04:30:00Z,30.2513,-88.0778,14.46,1111122 
DISL,ioos:station:DISL:DISL:1,2011-02-01T05:00:00Z,30.2513,-88.0778,14.22,1111122 
DISL,ioos:station:DISL:DISL:1,2011-02-01T05:30:00Z,30.2513,-88.0778,14.11,1111122 
DISL,ioos:station:DISL:DISL:1,2011-02-01T06:00:00Z,30.2513,-88.0778,13.89,1111122 
DISL,ioos:station:DISL:DISL:1,2011-02-01T06:30:00Z,30.2513,-88.0778,13.61,1111122 
DISL,ioos:station:DISL:DISL:1,2011-02-01T07:00:00Z,30.2513,-88.0778,13.79,1111122 
DISL,ioos:station:DISL:DISL:1,2011-02-01T07:30:00Z,30.2513,-88.0778,13.9,1111122 
DISL,ioos:station:DISL:DISL:1,2011-02-01T08:00:00Z,30.2513,-88.0778,14.07,1111122 
DISL,ioos:station:DISL:DISL:1,2011-02-01T08:30:00Z,30.2513,-88.0778,13.93,1111122 
DISL,ioos:station:DISL:DISL:1,2011-02-01T09:00:00Z,30.2513,-88.0778,13.68,1111122 
DISL,ioos:station:DISL:DISL:1,2011-02-01T09:30:00Z,30.2513,-88.0778,13.66,1111122 
DISL,ioos:station:DISL:DISL:1,2011-02-01T10:00:00Z,30.2513,-88.0778,14.37,1111122 
DISL,ioos:station:DISL:DISL:1,2011-02-01T10:30:00Z,30.2513,-88.0778,14.44,1111122 
DISL,ioos:station:DISL:DISL:1,2011-02-01T11:00:00Z,30.2513,-88.0778,14.53,1111122 
DISL,ioos:station:DISL:DISL:1,2011-02-01T11:30:00Z,30.2513,-88.0778,14.52,1111122 
DISL,ioos:station:DISL:DISL:1,2011-02-01T12:00:00Z,30.2513,-88.0778,14.76,1111122 
DISL,ioos:station:DISL:DISL:1,2011-02-01T12:30:00Z,30.2513,-88.0778,14.67,1111122 
DISL,ioos:station:DISL:DISL:1,2011-02-01T13:00:00Z,30.2513,-88.0778,14.69,1111122 
DISL,ioos:station:DISL:DISL:1,2011-02-01T13:30:00Z,30.2513,-88.0778,15.32,1111122 
DISL,ioos:station:DISL:DISL:1,2011-02-01T14:00:00Z,30.2513,-88.0778,15.34,1111122 
DISL,ioos:station:DISL:DISL:1,2011-02-01T14:30:00Z,30.2513,-88.0778,15.51,1111122 
DISL,ioos:station:DISL:DISL:1,2011-02-01T15:00:00Z,30.2513,-88.0778,15.47,1111122 
DISL,ioos:station:DISL:DISL:1,2011-02-01T15:30:00Z,30.2513,-88.0778,15.82,1111122 
DISL,ioos:station:DISL:DISL:1,2011-02-01T16:00:00Z,30.2513,-88.0778,15.96,1111122 
DISL,ioos:station:DISL:DISL:1,2011-02-01T16:30:00Z,30.2513,-88.0778,16.08,1111122 
DISL,ioos:station:DISL:DISL:1,2011-02-01T17:00:00Z,30.2513,-88.0778,15.99,1111122 
DISL,ioos:station:DISL:DISL:1,2011-02-01T17:30:00Z,30.2513,-88.0778,16.27,1111122 
DISL,ioos:station:DISL:DISL:1,2011-02-01T18:00:00Z,30.2513,-88.0778,16.5,1111122 
DISL,ioos:station:DISL:DISL:1,2011-02-01T18:30:00Z,30.2513,-88.0778,16.71,1111122 
DISL,ioos:station:DISL:DISL:1,2011-02-01T19:00:00Z,30.2513,-88.0778,17.11,1111122 
DISL,ioos:station:DISL:DISL:1,2011-02-01T19:30:00Z,30.2513,-88.0778,17.41,1111122 
DISL,ioos:station:DISL:DISL:1,2011-02-01T20:00:00Z,30.2513,-88.0778,17.34,1111122 
DISL,ioos:station:DISL:DISL:1,2011-02-01T20:30:00Z,30.2513,-88.0778,17.23,1111122 
DISL,ioos:station:DISL:DISL:1,2011-02-01T21:00:00Z,30.2513,-88.0778,17.59,1111122 
DISL,ioos:station:DISL:DISL:1,2011-02-01T21:30:00Z,30.2513,-88.0778,17.83,1111122 
DISL,ioos:station:DISL:DISL:1,2011-02-01T22:00:00Z,30.2513,-88.0778,17.55,1111122 
DISL,ioos:station:DISL:DISL:1,2011-02-01T22:30:00Z,30.2513,-88.0778,17.4,1111122 
DISL,ioos:station:DISL:DISL:1,2011-02-01T23:00:00Z,30.2513,-88.0778,17.89,1111122 
DISL,ioos:station:DISL:DISL:1,2011-02-01T23:30:00Z,30.2513,-88.0778,18.72,1111122 
DISL,ioos:station:DISL:DISL:1,2011-02-02T00:00:00Z,30.2513,-88.0778,17.86,1111122 
DISL,ioos:station:DISL:DISL:1,2011-02-02T00:30:00Z,30.2513,-88.0778,17.11,1111122 
DISL,ioos:station:DISL:DISL:1,2011-02-02T01:00:00Z,30.2513,-88.0778,16.44,1111122 
DISL,ioos:station:DISL:DISL:1,2011-02-02T01:30:00Z,30.2513,-88.0778,16.48,1111122 
DISL,ioos:station:DISL:DISL:1,2011-02-02T02:00:00Z,30.2513,-88.0778,16.02,1111122 
DISL,ioos:station:DISL:DISL:1,2011-02-02T02:30:00Z,30.2513,-88.0778,15.37,1111122 
DISL,ioos:station:DISL:DISL:1,2011-02-02T03:00:00Z,30.2513,-88.0778,15.41,1111122 
DISL,ioos:station:DISL:DISL:1,2011-02-02T03:30:00Z,30.2513,-88.0778,15.14,1111122 
DISL,ioos:station:DISL:DISL:1,2011-02-02T04:00:00Z,30.2513,-88.0778,15.06,1111122 
DISL,ioos:station:DISL:DISL:1,2011-02-02T04:30:00Z,30.2513,-88.0778,14.75,1111122 
DISL,ioos:station:DISL:DISL:1,2011-02-02T05:00:00Z,30.2513,-88.0778,14.27,1111122 
DISL,ioos:station:DISL:DISL:1,2011-02-02T05:30:00Z,30.2513,-88.0778,12.52,1111122 
DISL,ioos:station:DISL:DISL:1,2011-02-02T06:00:00Z,30.2513,-88.0778,11.79,1111122 
DISL,ioos:station:DISL:DISL:1,2011-02-02T06:30:00Z,30.2513,-88.0778,10.93,1111122 
DISL,ioos:station:DISL:DISL:1,2011-02-02T07:00:00Z,30.2513,-88.0778,10.03,1111122 
DISL,ioos:station:DISL:DISL:1,2011-02-02T07:30:00Z,30.2513,-88.0778,8.76,1111122 
DISL,ioos:station:DISL:DISL:1,2011-02-02T08:00:00Z,30.2513,-88.0778,8.26,1111122 
DISL,ioos:station:DISL:DISL:1,2011-02-02T08:30:00Z,30.2513,-88.0778,8.32,1111122 
DISL,ioos:station:DISL:DISL:1,2011-02-02T09:00:00Z,30.2513,-88.0778,7.26,1111122 
DISL,ioos:station:DISL:DISL:1,2011-02-02T09:30:00Z,30.2513,-88.0778,6.345,1111122 
DISL,ioos:station:DISL:DISL:1,2011-02-02T10:00:00Z,30.2513,-88.0778,5.148,1111122 
DISL,ioos:station:DISL:DISL:1,2011-02-02T10:30:00Z,30.2513,-88.0778,3.737,1111122 
DISL,ioos:station:DISL:DISL:1,2011-02-02T11:00:00Z,30.2513,-88.0778,3.178,1111122 
DISL,ioos:station:DISL:DISL:1,2011-02-02T11:30:00Z,30.2513,-88.0778,4.064,1111122 
DISL,ioos:station:DISL:DISL:1,2011-02-02T12:00:00Z,30.2513,-88.0778,3.657,1111122 
DISL,ioos:station:DISL:DISL:1,2011-02-02T12:30:00Z,30.2513,-88.0778,3.152,1111122 
DISL,ioos:station:DISL:DISL:1,2011-02-02T13:00:00Z,30.2513,-88.0778,3.276,1111122 
DISL,ioos:station:DISL:DISL:1,2011-02-02T13:30:00Z,30.2513,-88.0778,2.964,1111122 
DISL,ioos:station:DISL:DISL:1,2011-02-02T14:00:00Z,30.2513,-88.0778,2.85,1111122 
DISL,ioos:station:DISL:DISL:1,2011-02-02T14:30:00Z,30.2513,-88.0778,2.566,1111122 
DISL,ioos:station:DISL:DISL:1,2011-02-02T15:00:00Z,30.2513,-88.0778,2.773,1111122 
DISL,ioos:station:DISL:DISL:1,2011-02-02T15:30:00Z,30.2513,-88.0778,3.002,1111122 
DISL,ioos:station:DISL:DISL:1,2011-02-02T16:00:00Z,30.2513,-88.0778,3.268,1111122 
DISL,ioos:station:DISL:DISL:1,2011-02-02T16:30:00Z,30.2513,-88.0778,3.285,1111122 
DISL,ioos:station:DISL:DISL:1,2011-02-02T17:00:00Z,30.2513,-88.0778,3.465,1111122 
DISL,ioos:station:DISL:DISL:1,2011-02-02T17:30:00Z,30.2513,-88.0778,3.828,1111122 
DISL,ioos:station:DISL:DISL:1,2011-02-02T18:00:00Z,30.2513,-88.0778,4.228,1111122 
DISL,ioos:station:DISL:DISL:1,2011-02-02T18:30:00Z,30.2513,-88.0778,3.75,1111122 
DISL,ioos:station:DISL:DISL:1,2011-02-02T19:00:00Z,30.2513,-88.0778,3.57,1111122 
DISL,ioos:station:DISL:DISL:1,2011-02-02T19:30:00Z,30.2513,-88.0778,4.055,1111122 
DISL,ioos:station:DISL:DISL:1,2011-02-02T20:00:00Z,30.2513,-88.0778,4.055,1111122 
DISL,ioos:station:DISL:DISL:1,2011-02-02T20:30:00Z,30.2513,-88.0778,4.55,1111122 
DISL,ioos:station:DISL:DISL:1,2011-02-02T21:00:00Z,30.2513,-88.0778,4.837,1111122 
DISL,ioos:station:DISL:DISL:1,2011-02-02T21:30:00Z,30.2513,-88.0778,5.114,1111122 
DISL,ioos:station:DISL:DISL:1,2011-02-02T22:00:00Z,30.2513,-88.0778,4.951,1111122 
DISL,ioos:station:DISL:DISL:1,2011-02-02T22:30:00Z,30.2513,-88.0778,5.35,1111122 
DISL,ioos:station:DISL:DISL:1,2011-02-02T23:00:00Z,30.2513,-88.0778,5.626,1111122 
DISL,ioos:station:DISL:DISL:1,2011-02-02T23:30:00Z,30.2513,-88.0778,5.407,1111122 
DISL,ioos:station:DISL:DISL:1,2011-02-03T00:00:00Z,30.2513,-88.0778,5.225,1111122 
DISL,ioos:station:DISL:DISL:1,2011-02-03T00:30:00Z,30.2513,-88.0778,5.415,1111122 
DISL,ioos:station:DISL:DISL:1,2011-02-03T01:00:00Z,30.2513,-88.0778,5.09,1111122 
DISL,ioos:station:DISL:DISL:1,2011-02-03T01:30:00Z,30.2513,-88.0778,4.49,1111122 
DISL,ioos:station:DISL:DISL:1,2011-02-03T02:00:00Z,30.2513,-88.0778,4.149,1111122 
DISL,ioos:station:DISL:DISL:1,2011-02-03T02:30:00Z,30.2513,-88.0778,4.351,1111122 
DISL,ioos:station:DISL:DISL:1,2011-02-03T03:00:00Z,30.2513,-88.0778,4.103,1111122 
DISL,ioos:station:DISL:DISL:1,2011-02-03T03:30:00Z,30.2513,-88.0778,4.113,1111122 
DISL,ioos:station:DISL:DISL:1,2011-02-03T04:00:00Z,30.2513,-88.0778,3.951,1111122 
DISL,ioos:station:DISL:DISL:1,2011-02-03T04:30:00Z,30.2513,-88.0778,4.228,1111122 
DISL,ioos:station:DISL:DISL:1,2011-02-03T05:00:00Z,30.2513,-88.0778,3.807,1111122 
DISL,ioos:station:DISL:DISL:1,2011-02-03T05:30:00Z,30.2513,-88.0778,4.047,1111122 
DISL,ioos:station:DISL:DISL:1,2011-02-03T06:00:00Z,30.2513,-88.0778,4.112,1111122 
DISL,ioos:station:DISL:DISL:1,2011-02-03T06:30:00Z,30.2513,-88.0778,4.179,1111122 
DISL,ioos:station:DISL:DISL:1,2011-02-03T07:00:00Z,30.2513,-88.0778,4.256,1111122 
DISL,ioos:station:DISL:DISL:1,2011-02-03T07:30:00Z,30.2513,-88.0778,4.342,1111122 
DISL,ioos:station:DISL:DISL:1,2011-02-03T08:00:00Z,30.2513,-88.0778,4.342,1111122 
DISL,ioos:station:DISL:DISL:1,2011-02-03T08:30:00Z,30.2513,-88.0778,4.637,1111122 
DISL,ioos:station:DISL:DISL:1,2011-02-03T09:00:00Z,30.2513,-88.0778,4.437,1111122 
DISL,ioos:station:DISL:DISL:1,2011-02-03T09:30:00Z,30.2513,-88.0778,4.036,1111122 
DISL,ioos:station:DISL:DISL:1,2011-02-03T10:00:00Z,30.2513,-88.0778,3.95,1111122 
DISL,ioos:station:DISL:DISL:1,2011-02-03T10:30:00Z,30.2513,-88.0778,4.247,1111122 
DISL,ioos:station:DISL:DISL:1,2011-02-03T11:00:00Z,30.2513,-88.0778,3.77,1111122 
DISL,ioos:station:DISL:DISL:1,2011-02-03T11:30:00Z,30.2513,-88.0778,3.876,1111122 
DISL,ioos:station:DISL:DISL:1,2011-02-03T12:00:00Z,30.2513,-88.0778,3.895,1111122 
DISL,ioos:station:DISL:DISL:1,2011-02-03T12:30:00Z,30.2513,-88.0778,4.16,1111122 
DISL,ioos:station:DISL:DISL:1,2011-02-03T13:00:00Z,30.2513,-88.0778,4.141,1111122 
DISL,ioos:station:DISL:DISL:1,2011-02-03T13:30:00Z,30.2513,-88.0778,4.016,1111122 
DISL,ioos:station:DISL:DISL:1,2011-02-03T14:00:00Z,30.2513,-88.0778,3.656,1111122 
DISL,ioos:station:DISL:DISL:1,2011-02-03T14:30:00Z,30.2513,-88.0778,3.41,1111122 
DISL,ioos:station:DISL:DISL:1,2011-02-03T15:00:00Z,30.2513,-88.0778,2.963,1111122 
DISL,ioos:station:DISL:DISL:1,2011-02-03T15:30:00Z,30.2513,-88.0778,3.115,1111122 
DISL,ioos:station:DISL:DISL:1,2011-02-03T16:00:00Z,30.2513,-88.0778,3.134,1111122 
DISL,ioos:station:DISL:DISL:1,2011-02-03T16:30:00Z,30.2513,-88.0778,3.494,1111122 
DISL,ioos:station:DISL:DISL:1,2011-02-03T17:00:00Z,30.2513,-88.0778,3.57,1111122 
DISL,ioos:station:DISL:DISL:1,2011-02-03T17:30:00Z,30.2513,-88.0778,3.618,1111122 
DISL,ioos:station:DISL:DISL:1,2011-02-03T18:00:00Z,30.2513,-88.0778,4.113,1111122 
DISL,ioos:station:DISL:DISL:1,2011-02-03T18:30:00Z,30.2513,-88.0778,4.246,1111122 
DISL,ioos:station:DISL:DISL:1,2011-02-03T19:00:00Z,30.2513,-88.0778,4.37,1111122 
DISL,ioos:station:DISL:DISL:1,2011-02-03T19:30:00Z,30.2513,-88.0778,4.417,1111122 
DISL,ioos:station:DISL:DISL:1,2011-02-03T20:00:00Z,30.2513,-88.0778,5.228,1111122 
DISL,ioos:station:DISL:DISL:1,2011-02-03T20:30:00Z,30.2513,-88.0778,5.113,1111122 
DISL,ioos:station:DISL:DISL:1,2011-02-03T21:00:00Z,30.2513,-88.0778,5.169,1111122 
DISL,ioos:station:DISL:DISL:1,2011-02-03T21:30:00Z,30.2513,-88.0778,4.796,1111122 
DISL,ioos:station:DISL:DISL:1,2011-02-03T22:00:00Z,30.2513,-88.0778,5.179,1111122 
DISL,ioos:station:DISL:DISL:1,2011-02-03T22:30:00Z,30.2513,-88.0778,4.739,1111122 
DISL,ioos:station:DISL:DISL:1,2011-02-03T23:00:00Z,30.2513,-88.0778,4.931,1111122 
DISL,ioos:station:DISL:DISL:1,2011-02-03T23:30:00Z,30.2513,-88.0778,4.75,1111122 
DISL,ioos:station:DISL:DISL:1,2011-02-04T00:00:00Z,30.2513,-88.0778,4.979,1111122 
DISL,ioos:station:DISL:DISL:1,2011-02-04T00:30:00Z,30.2513,-88.0778,4.865,1111122 
DISL,ioos:station:DISL:DISL:1,2011-02-04T01:00:00Z,30.2513,-88.0778,4.712,1111122 
DISL,ioos:station:DISL:DISL:1,2011-02-04T01:30:00Z,30.2513,-88.0778,4.303,1111122 
DISL,ioos:station:DISL:DISL:1,2011-02-04T02:00:00Z,30.2513,-88.0778,4.16,1111122 
DISL,ioos:station:DISL:DISL:1,2011-02-04T02:30:00Z,30.2513,-88.0778,4.083,1111122 
DISL,ioos:station:DISL:DISL:1,2011-02-04T03:00:00Z,30.2513,-88.0778,3.932,1111122 
DISL,ioos:station:DISL:DISL:1,2011-02-04T03:30:00Z,30.2513,-88.0778,3.925,1111122 
DISL,ioos:station:DISL:DISL:1,2011-02-04T04:00:00Z,30.2513,-88.0778,4.027,1111122 
DISL,ioos:station:DISL:DISL:1,2011-02-04T04:30:00Z,30.2513,-88.0778,4.245,1111122 
DISL,ioos:station:DISL:DISL:1,2011-02-04T05:00:00Z,30.2513,-88.0778,4.359,1111122 
DISL,ioos:station:DISL:DISL:1,2011-02-04T05:30:00Z,30.2513,-88.0778,4.627,1111122 
DISL,ioos:station:DISL:DISL:1,2011-02-04T06:00:00Z,30.2513,-88.0778,4.608,1111122 
DISL,ioos:station:DISL:DISL:1,2011-02-04T06:30:00Z,30.2513,-88.0778,4.761,1111122 
DISL,ioos:station:DISL:DISL:1,2011-02-04T07:00:00Z,30.2513,-88.0778,4.779,1111122 
DISL,ioos:station:DISL:DISL:1,2011-02-04T07:30:00Z,30.2513,-88.0778,4.884,1111122 
DISL,ioos:station:DISL:DISL:1,2011-02-04T08:00:00Z,30.2513,-88.0778,5.142,1111122 
DISL,ioos:station:DISL:DISL:1,2011-02-04T08:30:00Z,30.2513,-88.0778,5.028,1111122 
DISL,ioos:station:DISL:DISL:1,2011-02-04T09:00:00Z,30.2513,-88.0778,5.247,1111122 
DISL,ioos:station:DISL:DISL:1,2011-02-04T09:30:00Z,30.2513,-88.0778,5.17,1111122 
DISL,ioos:station:DISL:DISL:1,2011-02-04T10:00:00Z,30.2513,-88.0778,5.533,1111122 
DISL,ioos:station:DISL:DISL:1,2011-02-04T10:30:00Z,30.2513,-88.0778,5.639,1111122 
DISL,ioos:station:DISL:DISL:1,2011-02-04T11:00:00Z,30.2513,-88.0778,5.85,1111122 
DISL,ioos:station:DISL:DISL:1,2011-02-04T11:30:00Z,30.2513,-88.0778,5.703,1111122 
DISL,ioos:station:DISL:DISL:1,2011-02-04T12:00:00Z,30.2513,-88.0778,5.741,1111122 
DISL,ioos:station:DISL:DISL:1,2011-02-04T12:30:00Z,30.2513,-88.0778,5.703,1111122 
DISL,ioos:station:DISL:DISL:1,2011-02-04T13:00:00Z,30.2513,-88.0778,5.808,1111122 
DISL,ioos:station:DISL:DISL:1,2011-02-04T13:30:00Z,30.2513,-88.0778,6.114,1111122 
DISL,ioos:station:DISL:DISL:1,2011-02-04T14:00:00Z,30.2513,-88.0778,6.614,1111122 
DISL,ioos:station:DISL:DISL:1,2011-02-04T14:30:00Z,30.2513,-88.0778,6.94,1111122 
DISL,ioos:station:DISL:DISL:1,2011-02-04T15:00:00Z,30.2513,-88.0778,7.18,1111122 
DISL,ioos:station:DISL:DISL:1,2011-02-04T15:30:00Z,30.2513,-88.0778,7.27,1111122 
DISL,ioos:station:DISL:DISL:1,2011-02-04T16:00:00Z,30.2513,-88.0778,6.315,1111122 
DISL,ioos:station:DISL:DISL:1,2011-02-04T16:30:00Z,30.2513,-88.0778,5.539,1111122 
DISL,ioos:station:DISL:DISL:1,2011-02-04T17:00:00Z,30.2513,-88.0778,5.635,1111122 
DISL,ioos:station:DISL:DISL:1,2011-02-04T17:30:00Z,30.2513,-88.0778,5.319,1111122 
DISL,ioos:station:DISL:DISL:1,2011-02-04T18:00:00Z,30.2513,-88.0778,5.511,1111122 
DISL,ioos:station:DISL:DISL:1,2011-02-04T18:30:00Z,30.2513,-88.0778,5.395,1111122 
DISL,ioos:station:DISL:DISL:1,2011-02-04T19:00:00Z,30.2513,-88.0778,5.473,1111122 
DISL,ioos:station:DISL:DISL:1,2011-02-04T19:30:00Z,30.2513,-88.0778,5.503,1111122 
DISL,ioos:station:DISL:DISL:1,2011-02-04T20:00:00Z,30.2513,-88.0778,5.558,1111122 
DISL,ioos:station:DISL:DISL:1,2011-02-04T20:30:00Z,30.2513,-88.0778,5.855,1111122 
DISL,ioos:station:DISL:DISL:1,2011-02-04T21:00:00Z,30.2513,-88.0778,6.036,1111122 
DISL,ioos:station:DISL:DISL:1,2011-02-04T21:30:00Z,30.2513,-88.0778,6.2,1111122 
DISL,ioos:station:DISL:DISL:1,2011-02-04T22:00:00Z,30.2513,-88.0778,6.614,1111122 
DISL,ioos:station:DISL:DISL:1,2011-02-04T22:30:00Z,30.2513,-88.0778,6.796,1111122 
DISL,ioos:station:DISL:DISL:1,2011-02-04T23:00:00Z,30.2513,-88.0778,7.11,1111122 
DISL,ioos:station:DISL:DISL:1,2011-02-04T23:30:00Z,30.2513,-88.0778,7.33,1111122 
DISL,ioos:station:DISL:DISL:1,2011-02-05T00:00:00Z,30.2513,-88.0778,7.61,1111122 
DISL,ioos:station:DISL:DISL:1,2011-02-05T00:30:00Z,30.2513,-88.0778,7.63,1111122 
DISL,ioos:station:DISL:DISL:1,2011-02-05T01:00:00Z,30.2513,-88.0778,6.816,1111122 
DISL,ioos:station:DISL:DISL:1,2011-02-05T01:30:00Z,30.2513,-88.0778,6.748,1111122 
DISL,ioos:station:DISL:DISL:1,2011-02-05T02:00:00Z,30.2513,-88.0778,6.651,1111122 
DISL,ioos:station:DISL:DISL:1,2011-02-05T02:30:00Z,30.2513,-88.0778,6.633,1111122 
DISL,ioos:station:DISL:DISL:1,2011-02-05T03:00:00Z,30.2513,-88.0778,6.681,1111122 
DISL,ioos:station:DISL:DISL:1,2011-02-05T03:30:00Z,30.2513,-88.0778,6.709,1111122 
DISL,ioos:station:DISL:DISL:1,2011-02-05T04:00:00Z,30.2513,-88.0778,6.719,1111122 
DISL,ioos:station:DISL:DISL:1,2011-02-05T04:30:00Z,30.2513,-88.0778,6.709,1111122 
DISL,ioos:station:DISL:DISL:1,2011-02-05T05:00:00Z,30.2513,-88.0778,6.748,1111122 
DISL,ioos:station:DISL:DISL:1,2011-02-05T05:30:00Z,30.2513,-88.0778,6.642,1111122 
DISL,ioos:station:DISL:DISL:1,2011-02-05T06:00:00Z,30.2513,-88.0778,6.652,1111122 
DISL,ioos:station:DISL:DISL:1,2011-02-05T06:30:00Z,30.2513,-88.0778,7.32,1111122 
DISL,ioos:station:DISL:DISL:1,2011-02-05T07:00:00Z,30.2513,-88.0778,7.05,1111122 
DISL,ioos:station:DISL:DISL:1,2011-02-05T07:30:00Z,30.2513,-88.0778,6.691,1111122 
DISL,ioos:station:DISL:DISL:1,2011-02-05T08:00:00Z,30.2513,-88.0778,6.547,1111122 
DISL,ioos:station:DISL:DISL:1,2011-02-05T08:30:00Z,30.2513,-88.0778,6.392,1111122 
DISL,ioos:station:DISL:DISL:1,2011-02-05T09:00:00Z,30.2513,-88.0778,5.951,1111122 
DISL,ioos:station:DISL:DISL:1,2011-02-05T09:30:00Z,30.2513,-88.0778,5.711,1111122 
DISL,ioos:station:DISL:DISL:1,2011-02-05T10:00:00Z,30.2513,-88.0778,5.08,1111122 
DISL,ioos:station:DISL:DISL:1,2011-02-05T10:30:00Z,30.2513,-88.0778,4.708,1111122 
DISL,ioos:station:DISL:DISL:1,2011-02-05T11:00:00Z,30.2513,-88.0778,4.242,1111122 
DISL,ioos:station:DISL:DISL:1,2011-02-05T11:30:00Z,30.2513,-88.0778,3.474,1111122 
DISL,ioos:station:DISL:DISL:1,2011-02-05T12:00:00Z,30.2513,-88.0778,3.105,1111122 
DISL,ioos:station:DISL:DISL:1,2011-02-05T12:30:00Z,30.2513,-88.0778,2.829,1111122 
DISL,ioos:station:DISL:DISL:1,2011-02-05T13:00:00Z,30.2513,-88.0778,2.668,1111122 
DISL,ioos:station:DISL:DISL:1,2011-02-05T13:30:00Z,30.2513,-88.0778,2.319,1111122 
DISL,ioos:station:DISL:DISL:1,2011-02-05T14:00:00Z,30.2513,-88.0778,2.386,1111122 
DISL,ioos:station:DISL:DISL:1,2011-02-05T14:30:00Z,30.2513,-88.0778,2.13,1111122 
DISL,ioos:station:DISL:DISL:1,2011-02-05T15:00:00Z,30.2513,-88.0778,2.292,1111122 
DISL,ioos:station:DISL:DISL:1,2011-02-05T15:30:00Z,30.2513,-88.0778,2.359,1111122 
DISL,ioos:station:DISL:DISL:1,2011-02-05T16:00:00Z,30.2513,-88.0778,2.634,1111122 
DISL,ioos:station:DISL:DISL:1,2011-02-05T16:30:00Z,30.2513,-88.0778,2.539,1111122 
DISL,ioos:station:DISL:DISL:1,2011-02-05T17:00:00Z,30.2513,-88.0778,2.718,1111122 
DISL,ioos:station:DISL:DISL:1,2011-02-05T17:30:00Z,30.2513,-88.0778,3.106,1111122 
DISL,ioos:station:DISL:DISL:1,2011-02-05T18:00:00Z,30.2513,-88.0778,3.191,1111122 
DISL,ioos:station:DISL:DISL:1,2011-02-05T18:30:00Z,30.2513,-88.0778,3.484,1111122 
DISL,ioos:station:DISL:DISL:1,2011-02-05T19:00:00Z,30.2513,-88.0778,3.882,1111122 
DISL,ioos:station:DISL:DISL:1,2011-02-05T19:30:00Z,30.2513,-88.0778,4.337,1111122 
DISL,ioos:station:DISL:DISL:1,2011-02-05T20:00:00Z,30.2513,-88.0778,4.556,1111122 
DISL,ioos:station:DISL:DISL:1,2011-02-05T20:30:00Z,30.2513,-88.0778,4.87,1111122 
DISL,ioos:station:DISL:DISL:1,2011-02-05T21:00:00Z,30.2513,-88.0778,4.784,1111122 
DISL,ioos:station:DISL:DISL:1,2011-02-05T21:30:00Z,30.2513,-88.0778,5.042,1111122 
DISL,ioos:station:DISL:DISL:1,2011-02-05T22:00:00Z,30.2513,-88.0778,5.148,1111122 
DISL,ioos:station:DISL:DISL:1,2011-02-05T22:30:00Z,30.2513,-88.0778,5.386,1111122 
DISL,ioos:station:DISL:DISL:1,2011-02-05T23:00:00Z,30.2513,-88.0778,5.626,1111122 
DISL,ioos:station:DISL:DISL:1,2011-02-05T23:30:00Z,30.2513,-88.0778,5.37,1111122 
DISL,ioos:station:DISL:DISL:1,2011-02-06T00:00:00Z,30.2513,-88.0778,5.189,1111122 
DISL,ioos:station:DISL:DISL:1,2011-02-06T00:30:00Z,30.2513,-88.0778,5.391,1111122 
DISL,ioos:station:DISL:DISL:1,2011-02-06T01:00:00Z,30.2513,-88.0778,5.305,1111122 
DISL,ioos:station:DISL:DISL:1,2011-02-06T01:30:00Z,30.2513,-88.0778,5.164,1111122 
DISL,ioos:station:DISL:DISL:1,2011-02-06T02:00:00Z,30.2513,-88.0778,5.595,1111122 
DISL,ioos:station:DISL:DISL:1,2011-02-06T02:30:00Z,30.2513,-88.0778,5.491,1111122 
DISL,ioos:station:DISL:DISL:1,2011-02-06T03:00:00Z,30.2513,-88.0778,5.94,1111122 
DISL,ioos:station:DISL:DISL:1,2011-02-06T03:30:00Z,30.2513,-88.0778,5.644,1111122 
DISL,ioos:station:DISL:DISL:1,2011-02-06T04:00:00Z,30.2513,-88.0778,5.788,1111122 
DISL,ioos:station:DISL:DISL:1,2011-02-06T04:30:00Z,30.2513,-88.0778,5.865,1111122 
DISL,ioos:station:DISL:DISL:1,2011-02-06T05:00:00Z,30.2513,-88.0778,6.037,1111122 
DISL,ioos:station:DISL:DISL:1,2011-02-06T05:30:00Z,30.2513,-88.0778,6.123,1111122 
DISL,ioos:station:DISL:DISL:1,2011-02-06T06:00:00Z,30.2513,-88.0778,5.635,1111122 
DISL,ioos:station:DISL:DISL:1,2011-02-06T06:30:00Z,30.2513,-88.0778,5.441,1111122 
DISL,ioos:station:DISL:DISL:1,2011-02-06T07:00:00Z,30.2513,-88.0778,5.145,1111122 
DISL,ioos:station:DISL:DISL:1,2011-02-06T07:30:00Z,30.2513,-88.0778,4.973,1111122 
DISL,ioos:station:DISL:DISL:1,2011-02-06T08:00:00Z,30.2513,-88.0778,5.028,1111122 
DISL,ioos:station:DISL:DISL:1,2011-02-06T08:30:00Z,30.2513,-88.0778,4.829,1111122 
DISL,ioos:station:DISL:DISL:1,2011-02-06T09:00:00Z,30.2513,-88.0778,4.792,1111122 
DISL,ioos:station:DISL:DISL:1,2011-02-06T09:30:00Z,30.2513,-88.0778,5.336,1111122 
DISL,ioos:station:DISL:DISL:1,2011-02-06T10:00:00Z,30.2513,-88.0778,5.185,1111122 
DISL,ioos:station:DISL:DISL:1,2011-02-06T10:30:00Z,30.2513,-88.0778,5.586,1111122 
DISL,ioos:station:DISL:DISL:1,2011-02-06T11:00:00Z,30.2513,-88.0778,5.529,1111122 
DISL,ioos:station:DISL:DISL:1,2011-02-06T11:30:00Z,30.2513,-88.0778,5.528,1111122 
DISL,ioos:station:DISL:DISL:1,2011-02-06T12:00:00Z,30.2513,-88.0778,5.718,1111122 
DISL,ioos:station:DISL:DISL:1,2011-02-06T12:30:00Z,30.2513,-88.0778,5.834,1111122 
DISL,ioos:station:DISL:DISL:1,2011-02-06T13:00:00Z,30.2513,-88.0778,6.254,1111122 
DISL,ioos:station:DISL:DISL:1,2011-02-06T13:30:00Z,30.2513,-88.0778,6.812,1111122 
DISL,ioos:station:DISL:DISL:1,2011-02-06T14:00:00Z,30.2513,-88.0778,6.614,1111122 
DISL,ioos:station:DISL:DISL:1,2011-02-06T14:30:00Z,30.2513,-88.0778,6.633,1111122 
DISL,ioos:station:DISL:DISL:1,2011-02-06T15:00:00Z,30.2513,-88.0778,6.567,1111122 
DISL,ioos:station:DISL:DISL:1,2011-02-06T15:30:00Z,30.2513,-88.0778,6.653,1111122 
DISL,ioos:station:DISL:DISL:1,2011-02-06T16:00:00Z,30.2513,-88.0778,7.1,1111122 
DISL,ioos:station:DISL:DISL:1,2011-02-06T16:30:00Z,30.2513,-88.0778,7.48,1111122 
DISL,ioos:station:DISL:DISL:1,2011-02-06T17:00:00Z,30.2513,-88.0778,7.91,1111122 
DISL,ioos:station:DISL:DISL:1,2011-02-06T17:30:00Z,30.2513,-88.0778,8.5,1111122 
DISL,ioos:station:DISL:DISL:1,2011-02-06T18:00:00Z,30.2513,-88.0778,9.0,1111122 
DISL,ioos:station:DISL:DISL:1,2011-02-06T18:30:00Z,30.2513,-88.0778,9.6,1111122 
DISL,ioos:station:DISL:DISL:1,2011-02-06T19:00:00Z,30.2513,-88.0778,9.4,1111122 
DISL,ioos:station:DISL:DISL:1,2011-02-06T19:30:00Z,30.2513,-88.0778,10.01,1111122 
DISL,ioos:station:DISL:DISL:1,2011-02-06T20:00:00Z,30.2513,-88.0778,10.41,1111122 
DISL,ioos:station:DISL:DISL:1,2011-02-06T20:30:00Z,30.2513,-88.0778,10.0,1111122 
DISL,ioos:station:DISL:DISL:1,2011-02-06T21:00:00Z,30.2513,-88.0778,10.81,1111122 
DISL,ioos:station:DISL:DISL:1,2011-02-06T21:30:00Z,30.2513,-88.0778,10.8,1111122 
DISL,ioos:station:DISL:DISL:1,2011-02-06T22:00:00Z,30.2513,-88.0778,10.66,1111122 
DISL,ioos:station:DISL:DISL:1,2011-02-06T22:30:00Z,30.2513,-88.0778,10.66,1111122 
DISL,ioos:station:DISL:DISL:1,2011-02-06T23:00:00Z,30.2513,-88.0778,10.47,1111122 
DISL,ioos:station:DISL:DISL:1,2011-02-06T23:30:00Z,30.2513,-88.0778,10.23,1111122 
DISL,ioos:station:DISL:DISL:1,2011-02-07T00:00:00Z,30.2513,-88.0778,10.0,1111122 